Location: ?????
(31.8092°N, 35.2590°E)
Time: 04:29:10
(UTC+00:00)

Cosmos 2360 Rocket - Pass Details

Date: 27 October 2021
Orbit: 832 x 846 km, 71.0° (Epoch: 07 December)

Event Time Altitude Azimuth Distance (km) Brightness Sun altitude
Rises 15:40:43 0° 206° (SSW) 3,369 5.9 -10.6°
Reaches altitude 10° 15:43:10 10° 209° (SSW) 2,440 5.1 -11.1°
Maximum altitude 15:48:43 66° 291° (WNW) 914 2.6 -12.2°
Drops below altitude 10° 15:54:20 10° 14° (NNE) 2,462 4.4 -13.4°
Sets 15:56:49 0° 17° (NNE) 3,402 5.1 -13.9°
